New Castle, PA

5:58 AM EST on February 12, 2016 (GMT -0500)
New Castle Municipal

Weather History for KUCP - December, 2012

Change the Weather History Date:

Thursday, December 20, 2012

  Actual Average Record
Temperature  
Mean Temperature 34 °F -  
Max Temperature 44 °F 38 °F 60 °F (1939)
Min Temperature 24 °F 21 °F -5 °F (1963)
Degree Days  
Heating Degree Days 31    
Moisture  
Dew Point 35 °F    
Average Humidity 90    
Maximum Humidity 100    
Minimum Humidity 65    
Precipitation  
Precipitation 0.57 in - - ()
Sea Level Pressure  
Sea Level Pressure 29.70 in    
Wind  
Wind Speed 7 mph (SE)    
Max Wind Speed 18 mph    
Max Gust Speed 25 mph    
Visibility 5 miles    
Events Fog , Rain    
Averages and records for this station are not official NWS values.
T = Trace of Precipitation, MM = Missing Value Source: NWS Daily Summary

Daily Weather History Graph

Daily Weather History Graph

Search for Another Location

Airport or City:

Trip Planner

Search our weather history database for the weather conditions in past years. The results will help you decide how hot, cold, wet, or windy it might be!

Date:

Astronomy

Dec. 20, 2012 Rise Set
Actual Time 7:42 AM EST 4:56 PM EST
Civil Twilight 7:11 AM EST 5:27 PM EST
Nautical Twilight 6:37 AM EST 6:02 PM EST
Astronomical Twilight 6:03 AM EST 6:35 PM EST
Moon 12:15 PM EST (12/20) 12:25 AM EST (12/20)
Length of Visible Light 10h 15m
Length of Day
9h 13m
First Quarter, 55% of the Moon is Illuminated
Dec 20
First Quarter
Dec 28
Full
Jan 4
Last Quarter
Jan 11
New
Jan 18
First Quarter

Hourly Weather History & Observations

Time (EST) Temp. Windchill Dew Point Humidity Pressure Visibility Wind Dir Wind Speed Gust Speed Precip Events Conditions
12:14 AM 26.6 °F - 24.8 °F 93% 30.14 in 1.5 mi Calm Calm - N/A   Clear
12:17 AM 26.6 °F - 26.6 °F 100% 30.14 in 1.0 mi Calm Calm - N/A   Clear
12:21 AM 26.6 °F - 24.8 °F 93% 30.14 in 0.5 mi Calm Calm - N/A Fog Light Freezing Fog
12:33 AM 24.8 °F - 24.8 °F 100% 30.14 in 0.2 mi Calm Calm - N/A Fog Light Freezing Fog
12:43 AM 26.6 °F - 24.8 °F 93% 30.14 in 0.8 mi Calm Calm - N/A   Clear
12:45 AM 26.6 °F - 24.8 °F 93% 30.14 in 1.2 mi Calm Calm - N/A   Clear
12:47 AM 26.6 °F - 24.8 °F 93% 30.13 in 2.5 mi Calm Calm - N/A   Clear
12:56 AM 26.1 °F - 26.1 °F 100% 30.21 in 4.0 mi Calm Calm - N/A   Clear
1:56 AM 27.1 °F - 27.1 °F 100% 30.19 in 4.0 mi Calm Calm - N/A   Clear
2:56 AM 31.1 °F 25.4 °F 31.1 °F 100% 30.16 in 4.0 mi East 5.8 mph - N/A   Partly Cloudy
3:56 AM 32.9 °F 27.5 °F 32.0 °F 96% 30.15 in 8.0 mi Variable 5.8 mph - N/A   Clear
4:56 AM 34.0 °F 27.2 °F 31.1 °F 89% 30.11 in 10.0 mi East 8.1 mph - N/A   Clear
5:56 AM 34.9 °F 25.7 °F 31.1 °F 86% 30.06 in 10.0 mi East 13.8 mph - N/A   Clear
6:56 AM 34.9 °F 27.7 °F 31.1 °F 86% 30.02 in 10.0 mi ESE 9.2 mph - N/A   Clear
7:56 AM 36.0 °F 27.1 °F 30.0 °F 79% 29.98 in 10.0 mi SE 13.8 mph - N/A   Clear
8:56 AM 36.9 °F 29.1 °F 31.1 °F 80% 29.94 in 10.0 mi ESE 11.5 mph - N/A   Clear
9:56 AM 38.8 °F 32.1 °F 31.1 °F 74% 29.91 in 10.0 mi ESE 10.4 mph - N/A   Clear
10:56 AM 41.0 °F 33.9 °F 31.1 °F 68% 29.86 in 10.0 mi SE 12.7 mph - N/A   Partly Cloudy
11:56 AM 41.9 °F 35.0 °F 31.1 °F 66% 29.83 in 10.0 mi SE 12.7 mph - N/A   Clear
12:56 PM 43.0 °F 37.2 °F 32.0 °F 65% 29.80 in 10.0 mi SE 10.4 mph - N/A   Partly Cloudy
1:56 PM 41.9 °F 35.4 °F 36.0 °F 79% 29.74 in 4.0 mi SE 11.5 mph - 0.00 in Rain Light Rain
2:31 PM 41.0 °F 35.8 °F 37.4 °F 87% 29.63 in 1.8 mi SE 8.1 mph - 0.04 in Rain Rain
2:56 PM 39.9 °F 32.9 °F 37.9 °F 93% 29.69 in 1.8 mi SE 11.5 mph - 0.08 in Rain Rain
3:27 PM 39.2 °F 31.6 °F 37.4 °F 93% 29.58 in 2.0 mi ESE 12.7 mph - 0.07 in Rain Light Rain
3:33 PM 39.2 °F 32.0 °F 37.4 °F 93% 29.57 in 1.8 mi ESE 11.5 mph - 0.08 in Rain Light Rain
3:44 PM 39.2 °F 32.0 °F 37.4 °F 93% 29.57 in 2.0 mi ESE 11.5 mph - 0.11 in Rain Light Rain
3:56 PM 39.9 °F 33.9 °F 37.9 °F 93% 29.64 in 2.0 mi SE 9.2 mph - 0.14 in Rain Rain
4:26 PM 39.2 °F 32.0 °F 37.4 °F 93% 29.55 in 2.0 mi SE 11.5 mph - 0.07 in Rain Rain
4:56 PM 39.9 °F 32.5 °F 38.8 °F 96% 29.57 in 5.0 mi ESE 12.7 mph - 0.11 in Rain Light Rain
5:18 PM 41.0 °F 33.1 °F 39.2 °F 93% 29.47 in 5.0 mi ESE 15.0 mph - 0.01 in Rain Light Rain
5:26 PM 41.0 °F 32.2 °F 39.2 °F 93% 29.44 in 4.0 mi ESE 18.4 mph - 0.02 in Rain Light Rain
5:56 PM 41.9 °F 34.6 °F 38.8 °F 89% 29.51 in 10.0 mi SE 13.8 mph - 0.03 in   Overcast
6:56 PM 43.0 °F 36.8 °F 39.9 °F 89% 29.49 in 5.0 mi SSE 11.5 mph 23.0 mph N/A   Overcast
7:11 PM 42.8 °F 37.0 °F 39.2 °F 87% 29.42 in 2.0 mi SSE 10.4 mph - 0.01 in Rain Light Rain
7:18 PM 42.8 °F 35.8 °F 39.2 °F 87% 29.42 in 1.8 mi SE 13.8 mph - 0.01 in Rain Light Rain
7:28 PM 42.8 °F 37.0 °F 41.0 °F 93% 29.42 in 2.5 mi SE 10.4 mph - 0.02 in Rain Light Rain
7:39 PM 42.8 °F 37.5 °F 41.0 °F 93% 29.41 in 1.8 mi SSE 9.2 mph - 0.03 in Rain Light Rain
7:42 PM 42.8 °F 36.6 °F 41.0 °F 93% 29.41 in 2.0 mi SSE 11.5 mph - 0.03 in Rain Light Rain
7:46 PM 42.8 °F 36.2 °F 41.0 °F 93% 29.41 in 3.0 mi SE 12.7 mph - 0.03 in Rain Light Rain
7:56 PM 43.0 °F 36.4 °F 41.0 °F 93% 29.47 in 10.0 mi SE 12.7 mph 25.3 mph 0.03 in   Overcast
8:03 PM 42.8 °F 36.2 °F 39.2 °F 87% 29.41 in 9.0 mi SSE 12.7 mph 24.2 mph N/A   Overcast
8:35 PM 42.8 °F 36.2 °F 41.0 °F 93% 29.40 in 3.0 mi SE 12.7 mph - 0.05 in Rain Light Rain
8:44 PM 42.8 °F 38.0 °F 41.0 °F 93% 29.39 in 4.0 mi SSE 8.1 mph - 0.06 in Rain Light Rain
8:56 PM 43.0 °F 37.2 °F 41.0 °F 93% 29.44 in 10.0 mi SE 10.4 mph - 0.06 in   Overcast
9:56 PM 43.9 °F 37.5 °F 41.0 °F 90% 29.39 in 8.0 mi SE 12.7 mph - 0.00 in Rain Light Rain
10:07 PM 44.6 °F 39.2 °F 41.0 °F 87% 29.33 in 4.0 mi SE 10.4 mph - 0.00 in Rain Light Rain
10:25 PM 44.6 °F 39.2 °F 42.8 °F 93% 29.33 in 2.5 mi SSE 10.4 mph - 0.02 in Rain Light Rain
10:32 PM 44.6 °F 40.7 °F 42.8 °F 93% 29.33 in 2.5 mi South 6.9 mph - 0.03 in Rain Light Rain
10:56 PM 39.9 °F 32.1 °F 36.9 °F 89% 29.42 in 1.8 mi WSW 13.8 mph - 0.11 in Rain Light Rain
10:58 PM 39.2 °F 31.6 °F 37.4 °F 93% 29.36 in 2.0 mi WSW 12.7 mph - 0.00 in Rain Light Rain
11:01 PM 39.2 °F 31.6 °F 37.4 °F 93% 29.37 in 4.0 mi WSW 12.7 mph - 0.01 in Rain Light Rain
11:56 PM 37.9 °F 30.0 °F 32.9 °F 82% 29.44 in 10.0 mi SW 12.7 mph - 0.01 in   Overcast